Location: Cisewo
(53.3833°N, 14.9000°E)
Time: 11:55:08
(UTC+00:00)

USA 229 - Pass Details

Date: 18 April 2021
Orbit: 958 x 1254 km, 63.4° (Epoch: 23 April)

Event Time Altitude Azimuth Distance (km) Brightness Sun altitude
Rises 21:33:25 0° 312° (NW) 3,914 7.7 -22.9°
Reaches altitude 10° 21:36:01 10° 312° (NW) 2,996 6.9 -23.0°
Maximum altitude 21:43:14 86° 224° (SW) 1,185 3.8 -23.4°
Enters shadow 21:46:15 41° 139° (SE) 1,671 4.2 -23.6°
